This is the latest recevied weather packets stored in our database for station/object N0NPO. If no packets are shown the sender has not sent any weather packets the latest 10 day(s).
| Time | Temp. | Humidity | Pressure | Rain* | Wind** | Luminosity | Snow |
|---|---|---|---|---|---|---|---|
| 1777831408 | 17.22° C | 1% | 1016.4 hPa | 0 mm | - | 695 W/m² | - |
| 1777831104 | 17.22° C | 1% | 1016.3 hPa | 0 mm | - | 705 W/m² | - |
| 1777830803 | 18.33° C | 1% | 1016.4 hPa | 0 mm | - | 722 W/m² | - |
| 1777830498 | 17.78° C | 1% | 1016.9 hPa | 0 mm | - | 718 W/m² | - |
| 1777830196 | 16.67° C | 1% | 1016.7 hPa | 0 mm | - | 711 W/m² | - |
| 1777829891 | 17.78° C | 1% | 1016.7 hPa | 0 mm | - | 711 W/m² | - |
| 1777829588 | 17.22° C | 1% | 1016.9 hPa | 0 mm | - | 733 W/m² | - |
| 1777829285 | 17.22° C | 1% | 1016.9 hPa | 0 mm | - | 705 W/m² | - |
| 1777828982 | 17.22° C | 1% | 1017 hPa | 0 mm | - | 659 W/m² | - |
| 1777828678 | 17.22° C | 1% | 1016.9 hPa | 0 mm | - | 626 W/m² | - |
| 1777828375 | 17.22° C | 1% | 1017.2 hPa | 0 mm | - | 730 W/m² | - |
| 1777828072 | 17.78° C | 1% | 1016.9 hPa | 0 mm | - | 736 W/m² | - |
| 1777827769 | 16.67° C | 1% | 1017.2 hPa | 0 mm | - | 771 W/m² | - |
| 1777827466 | 17.22° C | 1% | 1017.2 hPa | 0 mm | - | 776 W/m² | - |
| 1777827164 | 17.22° C | 1% | 1017.5 hPa | 0 mm | - | 787 W/m² | - |
| 1777826859 | 16.67° C | 1% | 1017.2 hPa | 0 mm | - | 732 W/m² | - |
| 1777826557 | 16.67° C | 1% | 1017.3 hPa | 0 mm | - | 680 W/m² | - |
| 1777826253 | 16.67° C | 1% | 1017.3 hPa | 0 mm | - | 721 W/m² | - |
| 1777825951 | 16.11° C | 1% | 1017.3 hPa | 0 mm | - | 763 W/m² | - |
| 1777825647 | 16.11° C | 1% | 1017.5 hPa | 0 mm | - | 727 W/m² | - |
| 1777825346 | 15.56° C | 1% | 1017.4 hPa | 0 mm | - | 699 W/m² | - |
| 1777825042 | 15.56° C | 1% | 1017.6 hPa | 0 mm | - | 675 W/m² | - |
| 1777824738 | 15.56° C | 1% | 1017.6 hPa | 0 mm | - | 688 W/m² | - |
| 1777824435 | 15.56° C | 1% | 1017.6 hPa | 0 mm | - | 689 W/m² | - |
| 1777824131 | 15° C | 1% | 1017.4 hPa | 0 mm | - | 656 W/m² | - |
* Rain latest hour (hover to see other rain measurements)
** Current wind speed in m/s (hover to see current wind gust speed)